Vorticity
23 16 14 12 15 18 18 8 9 19 12 9 9 12 5 6 19 33 11 8 4 22 23 -2 19 -6 10 24 10 13 7 13 7 11 10 -1 9 10 7 20 17 19 7 6 11 -0 4 4 8 7 5 8 9 9
20 18 12 24 -3 21 11 25 13 10 11 8 11 9 9 7 26 18 26 0 -3 -8 -6 -11 3 32 17 4 8 17 5 13 19 10 7 20 22 18 4 17 11 8 5 7 -1 6 4 8 7 5 6 9 7 8
1 15 10 6 15 -3 7 18 18 12 8 10 11 10 11 7 24 14 24 25 17 25 27 33 3 18 1 8 5 15 24 19 24 18 22 16 25 10 20 22 31 16 -1 3 5 6 7 10 5 6 7 6 5 6
18 18 17 21 -0 5 23 14 12 7 10 11 10 10 17 23 28 11 4 17 16 21 20 14 9 6 4 13 13 12 9 11 13 20 18 20 23 -4 25 13 -1 3 8 7 5 6 8 6 6 6 5 6 7 8
15 15 20 24 -3 23 11 11 10 9 11 11 11 18 22 9 10 3 3 10 16 18 16 9 10 9 10 9 8 14 12 14 16 16 9 27 -16 10 8 18 -3 8 7 9 9 13 8 4 5 7 7 7 8 9
15 20 -10 9 8 24 10 11 10 12 10 14 11 45 14 2 16 21 15 2 10 5 14 16 11 3 1 11 12 16 13 16 13 16 19 9 -10 7 11 3 5 6 9 9 11 6 5 6 6 6 8 8 17 25
23 10 2 -1 5 11 12 12 11 10 15 15 7 32 -3 8 -8 8 1 -4 1 9 15 -0 2 -1 13 8 9 11 12 12 14 24 10 3 7 10 8 9 -2 4 9 10 8 5 7 7 6 9 8 21 24 19
1 6 -2 7 18 14 12 9 9 19 14 11 15 29 -6 1 3 -4 4 5 9 5 4 16 10 12 6 11 7 12 12 14 11 15 7 -1 5 6 5 2 6 7 6 8 7 7 8 6 7 10 21 22 15 11
-2 10 -3 17 14 11 9 9 17 15 13 13 9 35 4 13 2 -1 5 6 4 -2 8 19 6 -8 18 15 15 10 12 10 13 22 12 12 13 0 7 6 8 9 6 7 8 9 6 7 9 21 18 14 16 15
-3 7 20 13 10 10 11 16 14 9 21 18 7 12 5 13 32 10 10 4 12 13 12 23 23 13 14 11 9 8 12 8 7 10 17 16 14 -1 9 8 10 7 7 9 10 5 7 7 19 17 13 16 11 9
-21 0 13 13 13 11 16 14 15 19 14 6 4 6 1 6 8 10 7 3 9 10 10 14 10 6 8 8 6 5 5 5 7 8 15 12 9 7 6 2 9 8 10 9 5 6 5 13 17 16 16 12 8 5
6 1 7 12 10 14 13 10 17 16 13 21 19 11 10 9 9 16 18 13 14 16 10 13 12 13 11 8 10 9 11 10 9 9 10 14 16 15 12 13 11 9 9 5 7 5 9 16 15 13 13 10 6 7
17 13 9 7 13 12 13 12 15 17 17 20 7 5 8 19 12 14 10 11 19 12 4 16 14 5 6 6 6 6 9 15 15 11 15 16 15 16 17 11 8 8 6 6 5 6 13 11 15 13 13 8 6 9
-4 8 18 15 12 15 12 14 20 10 11 6 4 6 8 6 8 8 14 10 4 4 14 4 4 9 9 6 10 12 13 8 11 16 11 13 12 13 11 8 8 7 6 6 6 8 11 10 14 11 12 8 5 9
1 16 17 13 14 11 18 15 15 15 8 9 10 10 7 6 10 11 24 19 2 -0 14 9 9 8 4 8 6 5 9 11 13 15 13 11 15 11 7 8 7 6 6 6 6 10 11 10 10 12 12 9 5 8
18 15 13 12 11 15 16 14 12 17 9 15 14 7 16 17 15 12 10 16 6 15 19 9 8 8 12 12 11 13 9 13 11 15 13 13 13 9 7 9 7 6 6 6 7 8 11 9 10 13 9 10 7 7
22 18 14 14 20 10 20 15 14 11 9 12 19 5 12 18 13 12 6 6 20 2 17 8 5 9 11 11 17 14 12 7 11 14 15 14 9 10 9 9 7 7 6 6 7 7 12 9 11 13 11 11 9 8
-1 19 35 13 19 13 10 11 15 13 13 14 14 8 12 10 9 6 4 14 9 12 13 14 15 13 14 16 19 16 10 8 7 12 11 11 9 6 9 7 7 8 7 7 8 8 11 10 9 14 12 10 10 9
7 2 -7 38 26 18 22 5 7 15 16 15 14 17 17 16 15 14 16 13 13 15 13 11 8 7 6 7 8 8 13 14 12 11 13 11 14 10 8 7 6 7 8 8 9 8 11 10 9 14 10 4 7 8
1 8 19 13 12 16 19 17 15 15 17 14 14 15 14 14 15 12 10 13 12 9 9 9 8 8 8 8 11 10 9 10 13 13 13 12 11 11 10 7 6 7 9 10 8 9 10 10 10 11 12 11 6 3
16 5 -4 4 2 5 4 14 16 10 9 7 10 10 14 15 16 17 15 13 10 9 9 10 11 13 3 6 12 12 14 10 12 13 12 15 12 9 5 4 4 7 8 8 9 10 10 10 11 10 11 10 8 9
-4 -0 0 2 2 -5 -3 5 6 8 10 8 8 9 6 7 9 12 12 13 13 16 13 12 7 7 5 5 7 8 12 13 10 9 11 11 11 12 11 4 4 9 10 9 9 9 8 9 9 11 10 12 13 13
7 2 1 3 4 3 -4 1 -0 8 4 2 10 11 6 6 5 4 3 5 8 10 10 10 14 16 14 9 9 10 9 10 11 11 9 10 8 9 10 8 4 6 10 10 9 8 7 9 11 10 9 10 11 13
8 5 2 4 2 4 10 9 6 6 5 4 3 2 11 13 13 11 5 6 8 3 5 7 11 9 7 8 13 14 13 12 11 13 14 15 13 11 8 8 8 8 9 10 11 11 10 8 7 9 11 12 12 12
9 4 8 2 7 9 9 8 13 15 16 19 20 14 9 7 11 13 11 11 9 6 6 7 8 6 6 9 10 9 9 8 10 12 14 14 12 11 12 12 11 11 14 12 9 10 9 9 9 11 11 12 12 12
15 18 17 16 14 12 15 15 12 9 5 5 7 8 5 6 7 9 4 11 10 9 9 10 10 13 12 10 9 11 11 11 12 12 8 9 12 13 14 14 11 10 11 9 9 8 9 9 10 9 9 10 10 11
28 26 21 18 15 11 10 8 7 7 6 7 5 2 7 15 22 26 23 26 29 31 30 27 24 22 20 19 17 16 14 14 15 15 20 21 18 13 11 10 13 13 10 6 4 3 4 7 7 7 8 7 9 10
13 15 20 26 34 32 24 23 17 15 13 17 26 31 26 23 24 24 22 20 20 20 21 22 22 23 21 19 20 15 15 14 14 14 11 11 12 11 9 9 10 10 9 8 11 14 14 12 8 7 7 8 10 12
14 10 10 12 13 15 16 18 18 18 19 19 19 22 28 20 18 16 16 14 12 10 6 5 10 10 12 14 14 16 18 18 19 18 16 20 14 14 13 13 10 8 7 6 8 10 10 9 8 8 9 9 11 14
24 24 21 18 18 16 19 18 13 15 19 19 14 14 12 10 8 7 7 7 9 11 11 9 9 9 8 10 14 16 15 11 10 12 14 13 13 15 11 7 7 9 8 3 5 8 9 9 8 11 17 20 19 16
6 6 11 16 15 20 23 19 17 12 8 5 7 6 6 6 5 5 6 5 5 3 3 5 7 9 10 11 11 10 11 9 7 6 4 5 6 7 8 10 10 11 11 10 11 10 9 14 14 11 12 13 13 12
10 7 5 5 3 4 5 6 8 7 3 2 7 5 -2 1 3 1 -1 5 9 8 10 11 11 10 10 13 14 16 16 16 15 14 13 12 12 13 13 9 12 10 13 12 10 15 12 7 9 12 14 13 13 13
15 13 13 15 15 14 11 8 8 8 4 3 2 3 2 4 9 10 10 10 9 11 12 11 12 15 16 13 13 13 13 13 13 14 14 14 13 13 14 13 11 10 14 13 5 6 12 14 13 14 15 14 10 6
Height
5354 5362 5372 5381 5391 5398 5406 5415 5423 5431 5440 5447 5453 5459 5466 5470 5473 5475 5481 5487 5493 5498 5504 5509 5514 5520 5523 5527 5530 5534 5539 5543 5547 5551 5554 5559 5561 5565 5569 5572 5575 5581 5586 5590 5593 5597 5604 5608 5607 5607 5606 5605 5603 5601
5352 5360 5369 5378 5388 5397 5404 5411 5419 5427 5436 5442 5449 5455 5460 5464 5468 5472 5477 5483 5489 5495 5500 5506 5511 5514 5519 5523 5526 5531 5536 5538 5542 5545 5550 5553 5556 5560 5565 5566 5569 5574 5582 5587 5592 5597 5599 5600 5601 5600 5600 5598 5596 5593
5351 5359 5368 5378 5387 5394 5401 5408 5416 5424 5432 5439 5445 5451 5455 5460 5464 5468 5472 5481 5487 5491 5497 5503 5507 5511 5514 5517 5521 5525 5528 5532 5535 5539 5545 5549 5553 5557 5558 5562 5569 5576 5581 5585 5590 5592 5593 5594 5595 5595 5593 5591 5588 5585
5350 5359 5368 5377 5385 5392 5398 5406 5414 5421 5428 5436 5442 5446 5453 5458 5461 5466 5470 5476 5482 5488 5493 5499 5504 5507 5511 5514 5516 5519 5522 5526 5530 5534 5540 5545 5551 5556 5559 5565 5570 5575 5579 5583 5586 5588 5588 5589 5590 5589 5587 5584 5581 5578
5350 5359 5368 5377 5385 5391 5397 5404 5411 5419 5426 5433 5439 5445 5451 5456 5462 5466 5469 5475 5481 5488 5490 5495 5501 5504 5508 5512 5514 5516 5519 5522 5527 5531 5537 5543 5550 5557 5560 5564 5568 5574 5577 5579 5581 5582 5583 5583 5583 5582 5580 5577 5573 5570
5351 5360 5369 5377 5384 5391 5397 5404 5411 5418 5424 5430 5436 5443 5448 5454 5461 5464 5468 5475 5480 5484 5490 5494 5499 5502 5506 5510 5512 5514 5518 5521 5526 5530 5536 5542 5546 5553 5557 5563 5567 5570 5571 5574 5577 5578 5578 5578 5577 5576 5574 5570 5566 5563
5351 5362 5370 5377 5384 5390 5397 5403 5409 5415 5422 5428 5434 5442 5447 5453 5458 5465 5469 5474 5480 5486 5491 5494 5498 5501 5506 5509 5512 5515 5518 5521 5526 5530 5534 5540 5544 5548 5556 5560 5563 5565 5568 5570 5572 5573 5573 5573 5571 5569 5566 5563 5560 5557
5354 5364 5372 5379 5385 5391 5397 5403 5408 5414 5419 5425 5432 5440 5446 5452 5458 5465 5469 5474 5480 5485 5490 5493 5497 5501 5505 5508 5511 5515 5518 5521 5525 5529 5534 5538 5543 5549 5553 5558 5559 5562 5564 5566 5567 5567 5568 5567 5565 5562 5560 5557 5555 5553
5359 5368 5374 5380 5386 5392 5398 5403 5408 5413 5419 5424 5431 5439 5445 5452 5460 5464 5468 5474 5478 5485 5488 5492 5497 5501 5503 5506 5509 5513 5516 5520 5524 5527 5531 5535 5540 5545 5551 5553 5554 5558 5560 5561 5562 5563 5562 5561 5559 5557 5554 5553 5552 5551
5364 5371 5377 5383 5389 5394 5399 5403 5407 5413 5419 5424 5431 5439 5446 5453 5456 5462 5468 5472 5478 5482 5486 5489 5493 5498 5502 5505 5508 5512 5515 5518 5522 5526 5528 5532 5537 5542 5544 5547 5550 5553 5555 5556 5557 5558 5557 5555 5554 5551 5550 5549 5550 5549
5369 5375 5380 5386 5390 5395 5399 5403 5409 5415 5420 5426 5432 5440 5447 5453 5456 5462 5467 5473 5477 5481 5485 5488 5492 5496 5500 5504 5506 5510 5514 5517 5520 5524 5525 5528 5534 5539 5540 5542 5546 5548 5550 5551 5552 5552 5551 5550 5548 5547 5546 5547 5547 5546
5374 5380 5384 5388 5392 5396 5400 5404 5411 5416 5422 5428 5434 5440 5446 5451 5456 5461 5466 5471 5476 5481 5484 5488 5493 5496 5499 5502 5505 5508 5511 5515 5517 5520 5522 5525 5530 5534 5535 5537 5541 5543 5545 5546 5547 5546 5546 5545 5544 5543 5544 5544 5544 5543
5379 5383 5387 5391 5395 5398 5402 5407 5413 5418 5423 5429 5434 5440 5445 5451 5455 5458 5463 5470 5475 5479 5483 5487 5491 5494 5497 5500 5502 5505 5508 5511 5513 5514 5518 5522 5525 5527 5530 5533 5536 5538 5540 5541 5541 5542 5541 5540 5540 5540 5540 5540 5540 5539
5384 5388 5391 5394 5398 5402 5405 5409 5415 5420 5425 5431 5437 5442 5446 5450 5455 5461 5467 5471 5475 5478 5481 5485 5488 5491 5493 5496 5499 5502 5505 5507 5508 5511 5514 5518 5520 5522 5526 5529 5531 5533 5535 5536 5536 5536 5535 5535 5535 5535 5536 5536 5535 5535
5388 5391 5394 5398 5401 5404 5408 5412 5416 5422 5426 5432 5436 5441 5445 5451 5455 5458 5462 5467 5471 5475 5478 5482 5485 5489 5490 5493 5495 5499 5501 5502 5506 5509 5510 5513 5516 5519 5522 5525 5527 5529 5530 5531 5531 5531 5530 5530 5530 5531 5531 5531 5530 5530
5392 5395 5397 5400 5404 5407 5411 5415 5419 5423 5427 5431 5435 5440 5445 5449 5453 5457 5461 5465 5469 5471 5475 5479 5482 5484 5486 5488 5492 5494 5498 5501 5502 5503 5506 5508 5511 5514 5517 5519 5522 5524 5524 5525 5526 5526 5525 5525 5525 5525 5525 5525 5525 5524
5397 5399 5401 5404 5406 5410 5413 5417 5420 5424 5427 5431 5435 5440 5444 5447 5451 5455 5459 5463 5466 5469 5471 5475 5478 5480 5483 5484 5487 5490 5494 5495 5497 5499 5501 5504 5507 5510 5512 5514 5516 5517 5519 5520 5520 5520 5519 5519 5519 5519 5519 5519 5519 5518
5401 5403 5405 5407 5410 5412 5415 5418 5422 5425 5428 5431 5435 5439 5443 5446 5450 5453 5457 5460 5463 5466 5469 5471 5474 5476 5479 5481 5484 5486 5489 5490 5493 5495 5498 5500 5502 5505 5507 5509 5510 5511 5512 5513 5514 5514 5513 5513 5513 5512 5512 5512 5512 5511
5408 5410 5411 5412 5414 5417 5420 5423 5426 5428 5431 5433 5436 5439 5442 5445 5448 5451 5454 5457 5460 5463 5465 5467 5470 5472 5475 5478 5480 5482 5483 5485 5488 5490 5492 5495 5496 5498 5501 5503 5504 5505 5506 5507 5507 5507 5506 5506 5506 5505 5505 5505 5504 5503
5413 5414 5416 5418 5420 5423 5425 5426 5429 5431 5432 5434 5437 5439 5442 5444 5447 5449 5452 5454 5457 5459 5461 5464 5466 5468 5471 5472 5474 5476 5478 5480 5482 5484 5487 5489 5490 5492 5494 5496 5497 5498 5499 5500 5499 5499 5499 5499 5498 5498 5498 5497 5496 5494
5417 5419 5421 5423 5425 5428 5430 5431 5432 5433 5435 5437 5439 5440 5442 5443 5445 5447 5449 5451 5454 5455 5457 5459 5462 5464 5464 5466 5468 5471 5473 5475 5476 5479 5481 5483 5485 5486 5487 5489 5490 5491 5491 5492 5492 5492 5492 5491 5491 5490 5489 5487 5486 5484
5419 5422 5423 5426 5428 5430 5431 5433 5434 5436 5437 5438 5440 5441 5443 5444 5445 5446 5447 5449 5450 5452 5454 5455 5457 5459 5460 5462 5464 5466 5468 5469 5471 5473 5475 5476 5477 5478 5479 5481 5482 5483 5483 5483 5484 5484 5483 5482 5481 5481 5480 5478 5476 5473
5419 5421 5423 5425 5427 5429 5431 5432 5433 5435 5436 5438 5439 5440 5441 5442 5443 5445 5445 5446 5446 5448 5449 5451 5453 5454 5456 5456 5458 5460 5462 5463 5465 5467 5467 5468 5470 5471 5471 5473 5474 5474 5474 5474 5474 5474 5474 5473 5472 5470 5469 5467 5465 5462
5418 5419 5421 5422 5424 5426 5427 5428 5429 5431 5432 5433 5434 5436 5437 5437 5438 5440 5441 5441 5441 5442 5444 5445 5447 5448 5450 5451 5452 5453 5454 5455 5456 5458 5460 5461 5463 5463 5463 5463 5464 5465 5465 5465 5465 5465 5464 5463 5461 5460 5458 5456 5454 5451
5414 5416 5417 5418 5419 5420 5421 5422 5423 5424 5426 5427 5428 5429 5430 5430 5431 5432 5434 5433 5434 5435 5437 5438 5439 5440 5441 5442 5443 5444 5446 5446 5447 5449 5451 5452 5452 5453 5454 5454 5454 5455 5455 5455 5455 5455 5454 5452 5449 5448 5446 5444 5442 5440
5407 5408 5410 5411 5412 5414 5415 5416 5417 5418 5419 5420 5421 5422 5423 5423 5423 5423 5424 5424 5425 5427 5427 5428 5430 5431 5431 5432 5433 5434 5436 5436 5437 5439 5440 5442 5442 5443 5444 5444 5445 5445 5444 5444 5444 5443 5442 5441 5439 5437 5435 5433 5430 5427
5400 5401 5402 5403 5405 5406 5408 5409 5410 5411 5412 5413 5414 5414 5414 5414 5414 5414 5413 5413 5414 5414 5415 5416 5417 5419 5420 5421 5421 5423 5424 5426 5427 5428 5430 5431 5432 5432 5433 5433 5434 5434 5433 5433 5433 5432 5431 5430 5428 5425 5423 5421 5418 5415
5397 5397 5397 5397 5397 5398 5399 5401 5402 5403 5404 5405 5406 5406 5406 5406 5407 5407 5407 5407 5408 5408 5409 5409 5410 5411 5412 5412 5412 5413 5414 5415 5416 5417 5419 5420 5420 5420 5421 5422 5422 5422 5422 5422 5422 5420 5419 5418 5416 5414 5411 5408 5405 5402
5396 5395 5395 5395 5395 5395 5395 5396 5396 5397 5398 5398 5399 5400 5401 5401 5402 5403 5403 5404 5405 5405 5405 5406 5406 5406 5406 5406 5406 5407 5407 5407 5408 5409 5410 5410 5411 5412 5412 5412 5412 5412 5412 5412 5411 5409 5407 5406 5403 5401 5398 5395 5392 5388
5394 5394 5393 5393 5393 5392 5393 5393 5393 5394 5394 5395 5396 5397 5398 5399 5400 5401 5401 5401 5402 5402 5402 5401 5401 5402 5402 5401 5400 5400 5400 5401 5401 5402 5402 5402 5402 5403 5403 5403 5402 5402 5401 5400 5399 5397 5395 5393 5390 5388 5384 5381 5378 5375
5394 5394 5393 5392 5392 5391 5391 5391 5392 5392 5393 5394 5395 5395 5396 5396 5397 5397 5397 5397 5397 5397 5397 5396 5396 5395 5395 5395 5394 5394 5394 5394 5394 5394 5394 5394 5394 5393 5393 5392 5392 5391 5389 5388 5387 5385 5382 5380 5377 5374 5371 5368 5364 5361
5392 5392 5391 5391 5390 5390 5390 5390 5390 5390 5391 5391 5392 5391 5392 5392 5391 5392 5392 5391 5390 5389 5389 5389 5388 5388 5387 5386 5386 5385 5385 5384 5384 5384 5384 5384 5383 5383 5382 5381 5380 5379 5378 5376 5374 5372 5370 5367 5364 5361 5357 5354 5351 5347
5388 5388 5387 5387 5386 5386 5386 5385 5385 5385 5386 5385 5385 5384 5384 5383 5383 5383 5382 5382 5381 5381 5380 5379 5379 5378 5377 5377 5377 5376 5375 5375 5375 5374 5374 5373 5373 5372 5371 5370 5369 5367 5366 5364 5361 5359 5356 5353 5350 5347 5344 5341 5338 5334